Location: Tierra del Sol
(32.6128°N, 116.3319°W)
Time: 14:33:06
(UTC-08:00)

Envisat - Pass Details

Date: 09 October 2017
Orbit: 764 x 766 km, 98.2° (Epoch: 18 December)

Event Time Altitude Azimuth Distance (km) Brightness Sun altitude
Exits shadow 20:24:54 28° 10° (N) 1,406 4.3 -27.2°
Drops below altitude 10° 20:27:22 10° 358° (N) 2,307 5.6 -27.7°
Sets 20:29:43 0° 354° (N) 3,237 6.4 -28.2°
